Weather History for CYEG - November, 2012

Change the Weather History Date:

Monday, November 12, 2012

  Actual Average Record
Temperature  
Mean Temperature 15 °F -  
Max Temperature 29 °F 27 °F 57 °F (2001)
Min Temperature 1 °F 7 °F -13 °F (2014)
Degree Days  
Heating Degree Days 50    
Moisture  
Dew Point 12 °F    
Average Humidity 83    
Maximum Humidity 93    
Minimum Humidity 71    
Precipitation  
Precipitation 0.00 in 0.02 in - ()
Sea Level Pressure  
Sea Level Pressure 30.07 in    
Wind  
Wind Speed 4 mph ()    
Max Wind Speed 9 mph    
Max Gust Speed -    
Visibility 15.0 miles    
Events      
Averages and records for this station are not official NWS values.
T = Trace of Precipitation, MM = Missing Value Source: Averaged Metar Reports

Daily Weather History Graph

Daily Weather History Graph

Search for Another Location

Airport or City:

Trip Planner

Search our weather history database for the weather conditions in past years. The results will help you decide how hot, cold, wet, or windy it might be!

Date:

Astronomy

Nov. 12, 2012 Rise Set
Actual Time 7:54 AM MST 4:41 PM MST
Civil Twilight 7:16 AM MST 5:20 PM MST
Nautical Twilight 6:34 AM MST 6:02 PM MST
Astronomical Twilight 5:53 AM MST 6:43 PM MST
Moon 6:18 AM MST (11/12) 3:53 PM MST (11/12)
Length of Visible Light 10h 03m
Length of Day
8h 46m
Waning Crescent, 2% of the Moon is Illuminated
Nov 12
Waning Crescent
Nov 13
New
Nov 20
First Quarter
Nov 28
Full
Dec 6
Last Quarter

Hourly Weather History & Observations

Time (MST) Temp. Windchill Dew Point Humidity Pressure Visibility Wind Dir Wind Speed Gust Speed Precip Events Conditions
12:00 AM 10.4 °F 0.8 °F 5.0 °F 79% 30.06 in 15.0 mi South 5.8 mph - N/A   Overcast
1:00 AM 12.2 °F - 6.8 °F 79% 30.06 in 15.0 mi WSW 2.3 mph - N/A   Overcast
2:00 AM 12.2 °F - 6.8 °F 79% 30.06 in 15.0 mi Calm Calm - N/A   Mostly Cloudy
3:00 AM 3.2 °F - -0.4 °F 85% 30.09 in 15.0 mi South 2.3 mph - N/A   Mostly Cloudy
4:00 AM 5.0 °F -4.1 °F 3.2 °F 92% 30.09 in 15.0 mi South 4.6 mph - N/A   Mostly Cloudy
5:00 AM 2 °F - -2 °F 77% 30.11 in 15 mi South 5.8 mph - -   Clear
5:00 AM 1.4 °F -11.3 °F -2.2 °F 85% 30.11 in 15.0 mi South 6.9 mph - N/A   Scattered Clouds
6:00 AM 8.6 °F 0.1 °F 5.0 °F 85% 30.10 in 15.0 mi SSW 4.6 mph - N/A   Scattered Clouds
7:00 AM 8.6 °F 0.1 °F 5.0 °F 85% 30.09 in 15.0 mi South 4.6 mph - N/A   Mostly Cloudy
8:00 AM 5.0 °F -4.1 °F 1.4 °F 85% 30.11 in 15.0 mi South 4.6 mph - N/A   Mostly Cloudy
9:00 AM 15.8 °F 8.6 °F 12.2 °F 86% 30.08 in 15.0 mi SSW 4.6 mph - N/A   Mostly Cloudy
10:00 AM 19.4 °F 14.3 °F 15.8 °F 86% 30.08 in 15.0 mi South 3.5 mph - N/A   Mostly Cloudy
11:00 AM 23 °F - 17 °F 71% 30.07 in 15 mi SSW 2.3 mph - -   Scattered Clouds
11:00 AM 23.0 °F 18.4 °F 17.6 °F 80% 30.07 in 15.0 mi South 3.5 mph - N/A   Mostly Cloudy
12:00 PM 24.8 °F 20.5 °F 19.4 °F 80% 30.06 in 15.0 mi SSW 3.5 mph - N/A   Mostly Cloudy
1:00 PM 26.6 °F 20.0 °F 21.2 °F 80% 30.04 in 15.0 mi South 5.8 mph - N/A   Mostly Cloudy
2:00 PM 28.4 °F - 21.2 °F 74% 30.04 in 15.0 mi Calm Calm - N/A   Overcast
3:00 PM 26.6 °F 20.0 °F 21.2 °F 80% 30.05 in 15.0 mi ESE 5.8 mph - N/A   Mostly Cloudy
4:00 PM 28.4 °F 21.2 °F 24.8 °F 86% 30.05 in 15.0 mi ESE 6.9 mph - N/A   Overcast
5:00 PM 27 °F - 23 °F 77% 30.06 in 15 mi SE 4.6 mph - -   Partly Cloudy
5:00 PM 26.6 °F 21.2 °F 23.0 °F 86% 30.06 in 15.0 mi SE 4.6 mph - N/A   Mostly Cloudy
6:00 PM 23.0 °F 17.0 °F 17.6 °F 80% 30.06 in 15.0 mi South 4.6 mph - N/A   Mostly Cloudy
7:00 PM 23.0 °F 17.0 °F 19.4 °F 86% 30.05 in 15.0 mi SSE 4.6 mph - N/A   Mostly Cloudy
8:00 PM 21.2 °F - 17.6 °F 86% 30.06 in 15.0 mi Calm Calm - N/A   Mostly Cloudy
9:00 PM 19.4 °F 12.8 °F 17.6 °F 93% 30.05 in 15.0 mi South 4.6 mph - N/A   Mostly Cloudy
10:00 PM 12.2 °F 1.7 °F 10.4 °F 92% 30.06 in 15.0 mi South 6.9 mph - N/A   Mostly Cloudy
11:00 PM 13 °F - 10 °F 84% 30.06 in 15 mi South 8.1 mph - -   Scattered Clouds
11:00 PM 14.0 °F 2.0 °F 10.4 °F 86% 30.06 in 15.0 mi South 9.2 mph - N/A   Mostly Cloudy